Weather History for Alexandria, MN

Change the Weather History Date:

Tuesday, March 26, 2013

  Actual Average Record
Temperature  
Mean Temperature 20 °F -  
Max Temperature 32 °F 39 °F 69 °F (2007)
Min Temperature 9 °F 21 °F -5 °F (1964)
Degree Days  
Heating Degree Days 44    
Moisture  
Dew Point 12 °F    
Average Humidity 73    
Maximum Humidity 88    
Minimum Humidity 52    
Precipitation  
Precipitation 0.00 in - - ()
Sea Level Pressure  
Sea Level Pressure 30.35 in    
Wind  
Wind Speed 5 mph (NW)    
Max Wind Speed 9 mph    
Max Gust Speed -    
Visibility 10 miles    
Events      
Averages and records for this station are not official NWS values.
T = Trace of Precipitation, MM = Missing Value Source: NWS Daily Summary

Daily Weather History Graph

Daily Weather History Graph

Search for Another Location

Airport:

Trip Planner

Search our weather history database for the weather conditions in past years. The results will help you decide how hot, cold, wet, or windy it might be!

Date:

Astronomy

Mar. 26, 2013 Rise Set
Actual Time 7:12 AM CDT 7:42 PM CDT
Civil Twilight 6:42 AM CDT 8:12 PM CDT
Nautical Twilight 6:07 AM CDT 8:47 PM CDT
Astronomical Twilight 5:30 AM CDT 9:24 PM CDT
Moon 7:21 PM CDT 6:30 AM CDT
Length of Visible Light 13h 29m
Length of Day
12h 29m
Waxing Gibbous, 99% of the Moon is Illuminated
Mar 26
Waxing Gibbous
Mar 27
Full
Apr 2
Last Quarter
Apr 10
New
Apr 18
First Quarter

Hourly Weather History & Observations

Time (CDT) Temp. Windchill Dew Point Humidity Pressure Visibility Wind Dir Wind Speed Gust Speed Precip Events Conditions
12:53 AM 15.1 °F 3.3 °F 9.0 °F 77% 30.35 in 10.0 mi NNW 9.2 mph - N/A   Clear
1:53 AM 12.0 °F 0.5 °F 8.1 °F 84% 30.35 in 10.0 mi NW 8.1 mph - N/A   Clear
2:53 AM 12.0 °F 0.5 °F 7.0 °F 80% 30.35 in 10.0 mi NW 8.1 mph - N/A   Clear
3:53 AM 10.9 °F -0.8 °F 7.0 °F 84% 30.34 in 10.0 mi NW 8.1 mph - N/A   Clear
4:53 AM 10.9 °F 0.2 °F 7.0 °F 84% 30.34 in 10.0 mi NNW 6.9 mph - N/A   Mostly Cloudy
6:53 AM 9.0 °F 2.4 °F 6.1 °F 88% 30.35 in 10.0 mi NNW 3.5 mph - N/A   Clear
7:53 AM 10.0 °F 1.8 °F 7.0 °F 87% 30.37 in 10.0 mi NW 4.6 mph - N/A   Clear
8:53 AM 10.9 °F 2.9 °F 7.0 °F 84% 30.38 in 10.0 mi WNW 4.6 mph - N/A   Clear
9:53 AM 14.0 °F 5.1 °F 10.0 °F 84% 30.38 in 10.0 mi WNW 5.8 mph - N/A   Clear
10:53 AM 19.9 °F 14.9 °F 12.9 °F 74% 30.37 in 10.0 mi North 3.5 mph - N/A   Clear
11:53 AM 23.0 °F 15.8 °F 14.0 °F 68% 30.37 in 10.0 mi West 5.8 mph - N/A   Clear
12:53 PM 26.1 °F 20.5 °F 16.0 °F 66% 30.36 in 10.0 mi WNW 4.6 mph - N/A   Clear
1:53 PM 28.0 °F 22.8 °F 17.1 °F 63% 30.36 in 10.0 mi WNW 4.6 mph - N/A   Clear
2:53 PM 30.0 °F 25.2 °F 18.0 °F 61% 30.35 in 10.0 mi WNW 4.6 mph - N/A   Clear
3:53 PM 30.9 °F 27.5 °F 18.0 °F 59% 30.34 in 10.0 mi NW 3.5 mph - N/A   Clear
4:53 PM 32.0 °F - 16.0 °F 52% 30.33 in 10.0 mi Calm Calm - N/A   Clear
5:53 PM 32.0 °F - 17.1 °F 54% 30.33 in 10.0 mi Calm Calm - N/A   Clear
6:53 PM 32.0 °F - 16.0 °F 52% 30.32 in 10.0 mi Calm Calm - N/A   Clear
7:53 PM 28.0 °F - 16.0 °F 61% 30.33 in 10.0 mi Calm Calm - N/A   Clear
8:53 PM 26.1 °F - 16.0 °F 66% 30.34 in 10.0 mi Calm Calm - N/A   Clear
9:53 PM 19.9 °F - 15.1 °F 81% 30.35 in 10.0 mi Calm Calm - N/A   Clear
10:53 PM 16.0 °F 10.4 °F 10.9 °F 81% 30.36 in 10.0 mi SW 3.5 mph - N/A   Clear
11:53 PM 17.1 °F - 12.0 °F 81% 30.36 in 10.0 mi Calm Calm - N/A   Clear